Location: Unspecified
(0.0000°N, 0.0000°E)
Time: 11:41:43
(UTC+00:00)

Vanguard 3 - Pass Details

Date: 11 October 2022
Orbit: 509 x 3255 km, 33.3° (Epoch: 30 November)

Event Time Altitude Azimuth Distance (km) Brightness Sun altitude
Rises 19:27:42 0° 235° (SW) 6,927 12.9 -25.0°
Reaches altitude 10° 19:35:22 10° 217° (SW) 6,145 12.1 -26.9°
Maximum altitude 19:46:39 17° 182° (S) 5,522 11.4 -29.7°
Drops below altitude 10° 19:57:15 10° 146° (SE) 5,744 11.2 -32.4°
Enters shadow 20:00:12 - 137° (SE) 5,959 11.3 -33.1°
